FENGYUN 1C DEB, 30597

Orbit data source: Space-Track

FENGYUN 1C DEB, 30597 is space debris in SSO originally from a launch on Mon, 10 May 1999 UTC launched from the Taiyaun Space Center, China (TSC). Fengyun 1C debris stems from the Chinese weather satellite Fengyun-1C, which was intentionally destroyed by a Chinese anti-satellite missile in 2007. This event dramatically increased the amount of space debris, with thousands of trackable fragments posing hazards to satellites and human spaceflight. The Fengyun 1C debris cloud has become a focal point in discussions about space sustainability and the need for international regulations to prevent the creation of new debris.

Loading next visibility...
Identifier
30597, 1999-025AMC
Orbit
SSO
Country
Flag of CNCN / PRC
Related business
Manufacturer
Unknown
Mission
Spacecraft
Bus & Motor
Unknown
Mass
Unknown
Launch date (UTC)
1999-05-10 (26 years ago)
Launch vehicle
Unknown
Launch site
Taiyaun Space Center, China (TSC)
Object type
Payload
Rocket body
Debris
Shape & HBR
Unknown shape, 0.1 m
Radar Cross Section
Small (<0.1 m²)

Expand to show TLE details & history
Last TLE update: 7 hours ago

TLE from 7 hours ago
0 FENGYUN 1C DEB
1 30597U 99025AMC 25310.76865991  .00063966  00000-0  69115-2 0  9995
2 30597  98.9404 242.5590 0048027 289.5758  70.0273 14.87174692980018
Epoch: 2025-11-06T18:26Z
TLE epoch observation values (Epoch: 2025-11-06T18:26:52.216Z)
Latitude
0.00002°
Longitude
-80.3808°
Altitude
598.448 km
Speed
7.567 km/s
True Right ascension
16h 10m 14s
True Declination
0° 00' 00"
Sunlit
Object was in daylight at epoch
Visualization orbit readout
Latitude
Unknown
Longitude
Unknown
Altitude
Unknown
Speed
Unknown
Apparent Right ascension
Unknown
Apparent Declination
Unknown
Sunlit
N/A
Visualization observer readout
Local Sidereal Time
21:48:25
Azimuth
Unknown
Elevation
Unknown
Doppler factor
Unknown
Orbital elements
Apogee altitude
637.381 km
Perigee altitude
570.317 km
Semi-major axis
6,981.986 km
Eccentricity
0.0048
Inclination
98.9404°
RAAN
242.559°
Arg. of periapsis
289.5758°
True anomaly
70.5456°
Mean anomaly
70.0273°
Eccentric anomaly
70.28635°
Mean motion
3.72027 °/min
Orbital period
96.77 mins
BSTAR
0.0069115
Loading maneuver chart data...
Computing Atmospheric mass density...

Documentation

Showing up to 5 results
|